Regional Weather Roundup
Issued by NWS Jackson, KY

Home | Current Version | Previous Version | Graphics & Text | Print | Product List | Glossary On
Versions: 1 2 3 4 5 6 7 8 9 10 11 12 13 14 15 16 17 18 19 20 21 22 23 24 25 26 27
000
ASUS43 KJKL 142110
RWRJKL

EAST KENTUCKY HOURLY WEATHER ROUNDUP
NATIONAL WEATHER SERVICE JACKSON KY
400 PM EST THU DEC 14 2017

NOTE: "FAIR" INDICATES FEW OR NO CLOUDS BELOW 12,000 FEET WITH
NO SIGNIFICANT WEATHER AND/OR OBSTRUCTIONS TO VISIBILITY.

* THESE REPORTS ARE NOT UNDER NWS QUALITY CONTROL AND MAY NOT
  REPORT WEATHER SUCH AS PRECIPITATION AND FOG.

KYZ079-080-083-085-087-088-110-112-115-119-120-142200
...EASTERN KENTUCKY...

CITY           SKY/WX    TMP DP  RH WIND       PRES   REMARKS
JACKSON        PTSUNNY   34  20  56 NW5       29.96R WCI  30
LONDON         CLOUDY    36  22  56 N6        29.98R WCI  31
SOMERSET*      CLOUDY    34  23  64 NE5       30.02R WCI  30
MONTICELLO*    CLOUDY    36  24  62 NW7       30.02R WCI  30
WILLIAMSBURG*  CLOUDY    36  25  64 N5        29.98R WCI  32
MIDDLESBORO*   PTSUNNY   40  26  57 CALM      29.96S
HARLAN APT*    CLOUDY    37  27  65 W3        29.94R
PIKE CO APT*   CLOUDY    35  22  59 NW6       29.95S WCI  29
BIG SANDY APT* CLOUDY    35  21  58 N3        29.97S
MOREHEAD APT*  CLOUDY    32  18  55 CALM      30.01F
$$

KYZ035-036-041-042-044-050-067-078-099-142200
...CENTRAL KENTUCKY...

CITY           SKY/WX    TMP DP  RH WIND       PRES   REMARKS
MT STERLING*   CLOUDY    32  21  64 CALM      30.01S
FLEMING/MASON* PTSUNNY   31  18  57 NE6       30.02S WCI  26
DANVILLE*      CLOUDY    34  21  60 N5        30.02R WCI  30
LEXINGTON      MOSUNNY   37  16  42 VRB5      30.00R WCI  33
FRANKFORT      MOSUNNY   36  15  42 VRB3      30.00R
LOUISVILLE     CLOUDY    34  18  52 W10       30.05R WCI  26
LEBANON*       MOCLDY    34  19  55 N8        30.02R WCI  27
GLASGOW*       CLOUDY    37  23  58 W7        30.03R WCI  31
BOWLING GREEN  CLOUDY    37  24  59 SW9       30.05R WCI  30
$$

KYZ091>093-OHZ055-061-077-WVZ005-015-034-035-042-142200
...SOUTHERN OHIO/WEST VIRGINIA...

CITY           SKY/WX    TMP DP  RH WIND       PRES   REMARKS
COVINGTON      PTSUNNY   27  17  66 NE6       30.03S WCI  20
COLUMBUS       CLOUDY    26  15  63 W3        30.03R
DAYTON         PTSUNNY   24  17  74 CALM      30.03S
WILMINGTON     CLOUDY    23  16  74 NW3       30.02S
HUNTINGTON     CLOUDY    33  18  53 N3        30.01R
CHARLESTON     CLOUDY    33  18  53 VRB3      29.99R
PINEVILLE*       N/A     35  23  61 MISG      29.98R
BECKLEY        CLOUDY    29  19  66 NW5       29.90R WCI  24
BLUEFIELD      CLOUDY    30  20  66 VRB7      29.88R WCI  23
LOGAN CO APT*  CLOUDY    32  21  64 CALM      29.95R
$$

VAZ002-007-008-TNZ017-027-036-066-071-142200
...SOUTHWEST VIRGINIA/EAST TENNESSEE...

CITY           SKY/WX    TMP DP  RH WIND       PRES   REMARKS
WISE*          MOSUNNY   34  28  80 N6        29.90R WCI  29
JONESVILLE*      N/A     41  27  56 CALM      29.96R
ABINGDON*      MOSUNNY   41  27  56 CALM      29.89S
BRISTOL        CLOUDY    44  29  55 NW6       29.91R
MORRISTOWN*    CLEAR     43  27  52 N10       29.92R
SEVIERVILLE*   CLEAR     50  28  43 W8        29.91S
KNOXVILLE      PTSUNNY   47  31  53 W8        29.92S
LAFOLLETTE*    PTCLDY    43  27  52 VRB6      29.98S
OAK RIDGE      CLOUDY    46  28  49 W7        29.95R
CROSSVILLE     SUNNY     39  25  57 W8        29.94R WCI  33
NASHVILLE      CLOUDY    39  25  57 NW10      30.04R WCI  32
$$

...KEY TO REMARKS...
VSB - VISIBILITY IN MILES
WCI - WIND CHILL INDEX
HX  - HEAT INDEX

$$




USA.gov is the U.S. government's official web portal to all federal, state and local government web resources and services.